Charleston, WV

11:22 PM EDT on August 20, 2019 (GMT -0400)
Yeager Airport

Weather History for KCRW - June, 2019

Change the Weather History Date:

Saturday, June 8, 2019

  Actual Average Record
Temperature  
Mean Temperature 71 °F 70 °F  
Max Temperature 74 °F 80 °F 98 °F (1940)
Min Temperature 67 °F 60 °F 37 °F (1977)
Degree Days  
Heating Degree Days 0 1  
Month to date heating degree days 2 8  
Since 1 June heating degree days 2 8  
Since 1 July heating degree days 4146 4473  
Cooling Degree Days 6 6  
Month to date cooling degree days 37 41  
Year to date cooling degree days 233 151  
Since 1 June cooling degree days 37 41  
Growing Degree Days 20 (Base 50)    
Moisture  
Dew Point 64 °F    
Average Humidity 82    
Maximum Humidity 100    
Minimum Humidity 64    
Precipitation  
Precipitation 0.03 in 0.15 in 2.61 in (1947)
Month to date precipitation 0.89 1.23  
Year to date precipitation 23.12 19.37  
Sea Level Pressure  
Sea Level Pressure 29.93 in    
Wind  
Wind Speed 7 mph (ENE)    
Max Wind Speed 18 mph    
Max Gust Speed 23 mph    
Visibility 9 miles    
Events Rain    
T = Trace of Precipitation, MM = Missing Value Source: NWS Daily Summary

Daily Weather History Graph

Daily Weather History Graph

Search for Another Location

Airport or City:

Astronomy

Jun. 08, 2019 Rise Set
Actual Time 6:02 AM EDT 8:48 PM EDT
Civil Twilight 5:31 AM EDT 9:19 PM EDT
Nautical Twilight 4:51 AM EDT 9:59 PM EDT
Astronomical Twilight 4:07 AM EDT 10:44 PM EDT
Moon 11:26 AM EDT (6/8) 12:50 AM EDT (6/8)
Length of Visible Light 15h 48m
Length of Day
14h 45m
Waxing Crescent, 32% of the Moon is Illuminated
Jun 8
Waxing Crescent
Jun 10
First Quarter
Jun 17
Full
Jun 25
Last Quarter
Jul 2
New

Hourly Weather History & Observations

Time (EDT) Temp. Dew Point Humidity Pressure Visibility Wind Dir Wind Speed Gust Speed Precip Events Conditions
12:54 AM 69.1 °F 66.9 °F 93% 29.87 in 8.0 mi ENE 5.8 mph - 0.00 in Rain Light Rain
1:54 AM 69.1 °F 66.9 °F 93% 29.88 in 8.0 mi NE 5.8 mph - 0.01 in Rain Light Rain
2:54 AM 69.1 °F 66.9 °F 93% 29.86 in 7.0 mi NE 6.9 mph - 0.01 in Rain Light Rain
3:39 AM 68.0 °F 66.0 °F 93% 29.89 in 9.0 mi ENE 5.8 mph - 0.00 in   Overcast
3:54 AM 68.0 °F 66.0 °F 93% 29.86 in 10.0 mi ENE 9.2 mph - 0.00 in   Overcast
4:54 AM 68.0 °F 66.0 °F 93% 29.87 in 9.0 mi NE 5.8 mph - N/A   Overcast
5:54 AM 66.9 °F 66.0 °F 97% 29.88 in 7.0 mi NE 3.5 mph - 0.00 in   Overcast
6:54 AM 66.9 °F 64.9 °F 93% 29.90 in 6.0 mi NE 4.6 mph - N/A   Overcast
7:54 AM 68.0 °F 64.9 °F 90% 29.91 in 6.0 mi ENE 3.5 mph - 0.00 in Rain Light Rain
8:54 AM 69.1 °F 64.9 °F 87% 29.93 in 10.0 mi ENE 4.6 mph - 0.00 in   Overcast
9:54 AM 70.0 °F 66.0 °F 87% 29.94 in 10.0 mi NE 4.6 mph - 0.00 in Rain Light Rain
10:54 AM 71.1 °F 66.0 °F 84% 29.94 in 8.0 mi ENE 6.9 mph - 0.00 in Rain Light Rain
11:54 AM 70.0 °F 64.9 °F 84% 29.95 in 8.0 mi ENE 8.1 mph - 0.00 in Rain Light Rain
12:54 PM 72.0 °F 66.0 °F 81% 29.96 in 10.0 mi East 8.1 mph - 0.01 in Rain Light Rain
1:54 PM 71.1 °F 63.0 °F 75% 29.97 in 10.0 mi ESE 11.5 mph - 0.00 in Rain Light Rain
2:54 PM 70.0 °F 64.0 °F 81% 29.96 in 9.0 mi East 8.1 mph - 0.00 in Rain Light Rain
3:54 PM 71.1 °F 63.0 °F 75% 29.96 in 10.0 mi ESE 10.4 mph 19.6 mph 0.00 in   Mostly Cloudy
4:43 PM 73.0 °F 62.1 °F 68% 29.97 in 10.0 mi East 11.5 mph 23.0 mph N/A   Mostly Cloudy
4:54 PM 73.0 °F 62.1 °F 68% 29.94 in 10.0 mi East 9.2 mph - N/A   Mostly Cloudy
5:54 PM 73.9 °F 62.1 °F 66% 29.94 in 10.0 mi ESE 15.0 mph 20.7 mph N/A   Mostly Cloudy
6:54 PM 73.0 °F 61.0 °F 66% 29.95 in 10.0 mi East 11.5 mph 18.4 mph N/A   Mostly Cloudy
7:54 PM 72.0 °F 60.1 °F 66% 29.95 in 10.0 mi ESE 10.4 mph - N/A   Mostly Cloudy
8:54 PM 70.0 °F 61.0 °F 73% 29.96 in 10.0 mi East 6.9 mph - N/A   Mostly Cloudy
9:54 PM 68.0 °F 62.1 °F 81% 29.97 in 10.0 mi ENE 6.9 mph - N/A   Scattered Clouds
10:54 PM 68.0 °F 61.0 °F 78% 29.97 in 10.0 mi ENE 6.9 mph - N/A   Scattered Clouds
11:54 PM 66.9 °F 61.0 °F 81% 29.97 in 10.0 mi NNE 4.6 mph - N/A   Mostly Cloudy